LUCH 5V

Last updated on Oct. 23, 2020, 5:56 a.m. UTC

1 39727U 14023A   20296.84464479 -.00000283  00000-0  00000-0 0  9997
2 39727   0.4365   6.1207 0001286 178.4205 245.9800  1.00268214 23678
UTC
Height (km)
Latitude
Longitude
Inclination
Orbital Period
UTC large
Height (km)
Speed (km/s)
/
Latitude / Longitude
Inclination (degrees)
Orbital Period (minutes)
Azimuth
Elevation
Range (km)
Doppler Factor
iOS Compass Heading
iOS Angle

Next 30 passes for location: Hong Kong

Rise time Rise Azimuth (degrees) Set time Set Azimuth (degrees) Duration Max altitude (degrees)

No matching passes for this satellites